FW7253 Weather Reports


time (UTC)temp
F
wind
direction
speed
knots
gust
knots
rain 1hr
in
rain 24hr
in
rain mn
in
humidity
%
barometer
mb
20260831060532 52 0 0.0 0.0 0.00 0.00 0.00 96 1004.3
20260831060048 52 0 0.0 0.0 0.00 0.00 0.00 96 1004.3
20260831055535 51 0 0.0 0.0 0.00 0.00 0.00 96 1004.2
20260831055033 51 0 0.0 0.0 0.00 0.00 0.00 96 1004.2
20260831054551 51 0 0.0 0.0 0.00 0.00 0.00 96 1004.3
20260831054031 51 0 0.0 0.9 0.00 0.00 0.00 96 1004.1
20260831053531 51 0 0.0 0.9 0.00 0.00 0.00 96 1004.1
20260831053048 51 252 0.0 0.9 0.00 0.00 0.00 96 1004.1
20260831052531 51 0 0.0 0.0 0.00 0.00 0.00 96 1004.1
20260831052031 51 0 0.0 0.0 0.00 0.00 0.00 96 1004.1
20260831051555 51 0 0.0 0.0 0.00 0.00 0.00 96 1004.2
20260831051034 51 0 0.0 0.0 0.00 0.00 0.00 96 1004.2
20260831050532 51 0 0.0 0.0 0.00 0.00 0.00 96 1004.3
20260831050052 51 0 0.0 0.0 0.00 0.00 0.00 96 1004.2
20260831045534 50 0 0.0 0.0 0.00 0.00 0.00 96 1004.1
20260831045037 50 0 0.0 0.0 0.00 0.00 0.00 96 1004.1
20260831044602 50 0 0.0 0.0 0.00 0.00 0.00 96 1004.2
20260831044034 50 0 0.0 0.0 0.00 0.00 0.00 96 1004.1
20260831043531 50 0 0.0 0.0 0.00 0.00 0.00 96 1004.1
20260831043056 50 0 0.0 0.0 0.00 0.00 0.00 96 1004.0
20260831042531 50 0 0.0 0.0 0.00 0.00 0.00 96 1003.9
20260831042031 50 0 0.0 0.0 0.00 0.00 0.00 96 1003.9
20260831041601 50 0 0.0 0.0 0.00 0.00 0.00 96 1003.9
20260831041038 50 0 0.0 0.0 0.00 0.00 0.00 96 1003.8
20260831040534 50 0 0.0 0.0 0.00 0.00 0.00 96 1003.7
20260831040050 50 0 0.0 0.0 0.00 0.00 0.00 96 1003.7
20260831035537 50 0 0.0 0.0 0.00 0.00 0.00 96 1003.8
20260831035032 50 0 0.0 0.0 0.00 0.00 0.00 96 1003.7
20260831034546 50 0 0.0 0.0 0.00 0.00 0.00 96 1003.7
20260831034031 51 0 0.0 0.0 0.00 0.00 0.00 96 1003.7
20260831033534 51 0 0.0 0.0 0.00 0.00 0.00 96 1003.6
20260831033052 51 0 0.0 0.0 0.00 0.00 0.00 96 1003.7
20260831032531 51 0 0.0 0.0 0.00 0.00 0.00 96 1003.6
20260831032034 51 0 0.0 0.0 0.00 0.00 0.00 96 1003.6
20260831031547 51 0 0.0 0.0 0.00 0.00 0.00 96 1003.6
20260831031031 51 0 0.0 0.9 0.00 0.00 0.00 96 1003.6
20260831030535 51 0 0.0 0.9 0.00 0.00 0.00 96 1003.5
20260831030106 51 243 0.0 0.9 0.00 0.00 0.00 96 1003.5
20260831025531 51 0 0.0 1.7 0.00 0.00 0.00 96 1003.5
20260831025031 51 0 0.0 2.6 0.00 0.00 0.00 96 1003.4
20260831024554 51 345 0.9 2.6 0.00 0.00 0.00 96 1003.4
20260831024033 51 24 0.0 2.6 0.00 0.00 0.00 96 1003.3
20260831023534 52 0 0.0 0.0 0.00 0.00 0.00 96 1003.4
20260831023047 52 0 0.0 0.0 0.00 0.00 0.00 96 1003.4
20260831022534 52 0 0.0 0.0 0.00 0.00 0.00 96 1003.5
20260831022034 52 0 0.0 0.0 0.00 0.00 0.00 96 1003.5
20260831021600 52 0 0.0 0.0 0.00 0.00 0.00 96 1003.6
20260831021036 52 0 0.0 0.0 0.00 0.00 0.00 96 1003.6
20260831020534 52 0 0.0 0.0 0.00 0.00 0.00 96 1003.7
20260831020106 52 0 0.0 0.0 0.00 0.00 0.00 96 1003.5
20260831015533 53 0 0.0 0.0 0.00 0.00 0.00 96 1003.5
20260831015034 53 0 0.0 0.0 0.00 0.00 0.00 96 1003.5
20260831014602 53 0 0.0 0.0 0.00 0.00 0.00 96 1003.6
20260831014034 53 0 0.0 0.0 0.00 0.00 0.00 96 1003.6
20260831013534 52 0 0.0 0.0 0.00 0.00 0.00 96 1003.5
20260831013050 52 0 0.0 0.0 0.00 0.00 0.00 96 1003.6
20260831012534 52 0 0.0 0.0 0.00 0.00 0.00 96 1003.5
20260831012034 52 0 0.0 0.0 0.00 0.00 0.00 96 1003.5
20260831011604 53 0 0.0 0.0 0.00 0.00 0.00 96 1003.5
20260831011034 53 0 0.0 0.0 0.00 0.00 0.00 96 1003.5
20260831010534 53 0 0.0 0.0 0.00 0.00 0.00 96 1003.6
20260831010051 53 0 0.0 0.0 0.00 0.00 0.00 96 1003.6
20260831005534 53 0 0.0 0.0 0.00 0.00 0.00 96 1003.5
20260831005034 53 0 0.0 0.0 0.00 0.00 0.00 96 1003.6
20260831004550 53 0 0.0 0.0 0.00 0.00 0.00 96 1003.4
20260831004036 54 0 0.0 0.0 0.00 0.00 0.00 96 1003.4
20260831003533 53 0 0.0 0.0 0.00 0.00 0.00 96 1003.4
20260831003051 53 0 0.0 0.0 0.00 0.00 0.00 96 1003.6
20260831002537 53 0 0.0 0.0 0.00 0.00 0.00 96 1003.6
20260831002033 53 0 0.0 0.0 0.00 0.00 0.00 96 1003.6
20260831001602 53 0 0.0 0.0 0.00 0.00 0.00 96 1003.5
20260831001033 54 0 0.0 0.0 0.00 0.00 0.00 96 1003.5
20260831000533 54 0 0.0 0.0 0.00 0.00 0.00 96 1003.6
20260831000050 54 0 0.0 0.0 0.00 0.00 0.00 96 1003.5
20260830235536 54 0 0.0 0.0 0.00 0.00 0.00 96 1003.5
20260830235035 54 0 0.0 0.0 0.00 0.00 0.00 96 1003.3
20260830234549 55 0 0.0 0.0 0.00 0.00 0.00 96 1003.4
20260830234032 55 0 0.0 0.0 0.00 0.00 0.00 96 1003.3
20260830233533 55 0 0.0 0.0 0.00 0.00 0.00 96 1003.4
20260830233103 55 0 0.0 0.0 0.00 0.00 0.00 96 1003.3
20260830232536 55 0 0.0 0.0 0.00 0.00 0.00 95 1003.4
20260830232033 56 0 0.0 0.0 0.00 0.00 0.00 96 1003.4
20260830231555 57 0 0.0 0.0 0.00 0.00 0.00 96 1003.3
20260830231033 57 0 0.0 0.0 0.00 0.00 0.00 96 1003.3
20260830230532 57 0 0.0 0.0 0.00 0.00 0.00 96 1003.5
20260830230048 57 0 0.0 0.0 0.00 0.00 0.00 96 1003.3
20260830225532 57 0 0.0 0.0 0.00 0.00 0.00 96 1003.3
20260830225034 57 0 0.0 0.0 0.00 0.00 0.00 96 1003.5
20260830224628 57 0 0.0 0.0 0.00 0.00 0.00 95 1003.4
20260830224032 57 0 0.0 0.0 0.00 0.00 0.00 96 1003.4
20260830223532 58 0 0.0 0.0 0.00 0.00 0.00 96 1003.4
20260830223057 58 0 0.0 0.0 0.00 0.00 0.00 96 1003.3
20260830222531 58 0 0.0 0.0 0.00 0.00 0.00 95 1003.2
20260830222033 57 0 0.0 0.0 0.00 0.00 0.00 95 1003.3
20260830221553 57 0 0.0 0.0 0.00 0.00 0.00 95 1003.3
20260830221033 58 0 0.0 0.0 0.00 0.00 0.00 95 1003.3
20260830220533 57 0 0.0 0.0 0.00 0.00 0.00 95 1003.3
20260830220104 57 0 0.0 0.0 0.00 0.00 0.00 95 1003.3
20260830215531 58 0 0.0 0.0 0.00 0.00 0.00 95 1003.3
20260830215033 58 0 0.0 0.0 0.00 0.00 0.00 95 1003.4
20260830214558 58 0 0.0 0.0 0.00 0.00 0.00 95 1003.3
20260830214031 58 0 0.0 0.0 0.00 0.00 0.00 95 1003.4
20260830213531 58 0 0.0 0.0 0.00 0.00 0.00 95 1003.2
20260830213052 58 0 0.0 0.0 0.00 0.00 0.00 95 1003.4
20260830212534 58 0 0.0 0.0 0.00 0.00 0.00 95 1003.2
20260830212031 58 0 0.0 0.0 0.00 0.00 0.00 94 1003.2
20260830211559 58 0 0.0 0.0 0.00 0.00 0.00 94 1003.2
20260830211033 59 0 0.0 0.0 0.00 0.00 0.00 94 1003.1
20260830210534 59 0 0.0 0.9 0.00 0.00 0.00 94 1003.1
20260830205530 59 175 0.0 0.0 0.00 0.00 0.00 94 1003.1
20260830205030 59 0 0.0 0.0 0.00 0.00 0.00 94 1003.1
20260830204552 59 153 0.0 0.9 0.00 0.00 0.00 94 1003.2
20260830204031 59 153 0.0 0.9 0.00 0.00 0.00 94 1003.1
20260830203531 59 0 0.0 1.7 0.00 0.00 0.00 94 1003.1
20260830203049 59 0 0.0 1.7 0.00 0.00 0.00 94 1003.1
20260830202531 59 0 0.0 1.7 0.00 0.00 0.00 94 1003.0
20260830202032 59 166 0.0 1.7 0.00 0.00 0.00 93 1003.1
20260830201547 59 0 0.0 1.7 0.00 0.00 0.00 93 1003.1
20260830201033 59 167 0.0 0.9 0.00 0.00 0.00 93 1003.1
20260830200537 59 127 0.0 2.6 0.00 0.00 0.00 93 1003.1
20260830200054 59 150 0.0 2.6 0.00 0.00 0.00 93 1003.0
20260830195530 59 189 0.0 2.6 0.00 0.00 0.00 93 1003.1
20260830195031 59 186 0.9 2.6 0.00 0.00 0.00 93 1003.0
20260830194551 59 131 0.0 1.7 0.00 0.00 0.00 92 1003.1
20260830194036 59 0 0.0 1.7 0.00 0.00 0.00 92 1003.0
20260830193530 60 155 0.9 2.6 0.00 0.00 0.00 92 1003.1
20260830193048 60 139 0.0 2.6 0.00 0.00 0.00 92 1003.1
20260830192530 60 0 0.0 2.6 0.00 0.00 0.00 91 1003.0
20260830192033 60 0 0.0 0.0 0.00 0.00 0.00 91 1003.0
20260830191546 60 0 0.0 0.0 0.00 0.00 0.00 91 1003.0
20260830191031 60 0 0.0 0.0 0.00 0.00 0.00 91 1003.0
20260830190530 60 0 0.0 0.0 0.00 0.00 0.00 91 1002.9
20260830190053 60 0 0.0 0.0 0.00 0.00 0.00 91 1002.9
20260830185533 60 0 0.0 0.9 0.00 0.00 0.00 91 1002.9
20260830185032 60 0 0.0 1.7 0.00 0.00 0.00 91 1002.7
20260830184547 60 0 0.0 1.7 0.00 0.00 0.00 90 1002.8
20260830184033 60 162 0.0 0.9 0.00 0.00 0.00 90 1002.8
20260830183532 61 0 0.0 0.9 0.00 0.00 0.00 90 1002.7
20260830183048 61 126 0.0 0.9 0.00 0.00 0.00 90 1002.7
20260830182534 61 0 0.0 0.9 0.00 0.00 0.00 90 1002.7
20260830182032 61 129 0.0 1.7 0.00 0.00 0.00 90 1002.7
20260830181549 61 110 0.0 1.7 0.00 0.00 0.00 89 1002.7
20260830181032 61 0 0.0 1.7 0.00 0.00 0.00 89 1002.7
20260830180534 61 172 0.0 0.9 0.00 0.00 0.00 89 1002.7
20260830180053 61 0 0.0 0.9 0.00 0.00 0.00 89 1002.7
20260830175531 61 134 0.0 1.7 0.00 0.00 0.00 88 1002.6
20260830175031 61 0 0.0 1.7 0.00 0.00 0.00 88 1002.7
20260830174551 62 109 0.9 1.7 0.00 0.00 0.00 88 1002.5
20260830174033 62 0 0.0 3.5 0.00 0.00 0.00 88 1002.5
20260830173532 62 136 0.0 3.5 0.00 0.00 0.00 88 1002.5
20260830173045 62 195 1.7 3.5 0.00 0.00 0.00 88 1002.5
20260830172532 62 0 1.7 3.5 0.00 0.00 0.00 88 1002.5
20260830172032 62 160 0.9 4.3 0.00 0.00 0.00 88 1002.5
20260830171603 62 148 0.9 4.3 0.00 0.00 0.00 88 1002.5
20260830171031 62 210 1.7 4.3 0.00 0.00 0.00 87 1002.4
20260830170531 62 168 0.9 4.3 0.00 0.00 0.00 87 1002.5
20260830170048 62 148 1.7 4.3 0.00 0.00 0.00 87 1002.4
20260830165533 62 186 1.7 4.3 0.00 0.00 0.00 87 1002.4
20260830165034 62 169 2.6 4.3 0.00 0.00 0.00 87 1002.4
20260830164600 62 203 2.6 4.3 0.00 0.00 0.00 87 1002.4
20260830164032 62 146 1.7 5.2 0.00 0.00 0.00 86 1002.3
20260830163533 63 211 2.6 6.1 0.00 0.00 0.00 86 1002.3
20260830163053 63 189 2.6 6.1 0.00 0.00 0.00 86 1002.2
20260830162533 63 172 2.6 5.2 0.00 0.00 0.00 85 1002.2
20260830162032 63 196 2.6 5.2 0.00 0.00 0.00 85 1002.2
20260830161550 63 198 2.6 7.0 0.00 0.00 0.00 85 1002.2
20260830161032 63 166 3.5 7.0 0.00 0.00 0.00 84 1002.1
20260830160532 64 207 2.6 6.1 0.00 0.00 0.00 84 1002.2
20260830160050 64 207 2.6 5.2 0.00 0.00 0.00 84 1002.1
20260830155532 64 181 3.5 5.2 0.00 0.00 0.00 84 1002.2
20260830155032 64 146 2.6 6.1 0.00 0.00 0.00 83 1002.1
20260830154548 65 226 1.7 6.1 0.00 0.00 0.00 82 1002.1
20260830154031 66 165 1.7 7.8 0.00 0.00 0.00 81 1002.1
20260830153531 66 139 2.6 7.8 0.00 0.00 0.00 81 1002.0
20260830153055 66 146 2.6 8.7 0.00 0.00 0.00 80 1002.0
20260830152532 67 167 2.6 8.7 0.00 0.00 0.00 80 1002.0
20260830152033 67 75 2.6 8.7 0.00 0.00 0.00 78 1002.0
20260830151550 68 203 1.7 8.7 0.00 0.00 0.00 78 1002.1
20260830151034 67 188 2.6 7.0 0.00 0.00 0.00 80 1002.0
20260830150533 67 168 2.6 7.8 0.00 0.00 0.00 81 1002.0
20260830150047 67 219 3.5 7.8 0.00 0.00 0.00 79 1002.1
20260830145533 66 142 2.6 7.0 0.00 0.00 0.00 80 1002.0
20260830145034 66 113 3.5 6.1 0.00 0.00 0.00 81 1002.0
20260830144546 66 164 1.7 6.1 0.00 0.00 0.00 81 1002.1
20260830144033 66 217 2.6 6.1 0.00 0.00 0.00 81 1002.1
20260830143530 66 167 2.6 7.0 0.00 0.00 0.00 81 1002.2
20260830143107 65 226 2.6 8.7 0.00 0.00 0.00 80 1002.2
20260830142530 65 182 3.5 8.7 0.00 0.00 0.00 81 1002.2
20260830142030 66 226 4.3 8.7 0.00 0.00 0.00 81 1002.1
20260830141546 66 215 2.6 9.6 0.00 0.00 0.00 82 1002.1
20260830141034 66 96 3.5 9.6 0.00 0.00 0.00 81 1002.0
20260830140533 66 200 4.3 9.6 0.00 0.00 0.00 80 1002.0
20260830140053 66 207 5.2 8.7 0.00 0.00 0.00 81 1002.0
20260830135530 66 148 2.6 7.8 0.00 0.01 0.00 79 1002.1
20260830135033 67 95 3.5 7.0 0.00 0.01 0.00 80 1002.0
20260830134548 66 89 1.7 6.1 0.00 0.01 0.00 81 1002.0
20260830134032 66 120 2.6 7.0 0.00 0.01 0.00 82 1002.2
20260830133534 65 207 2.6 9.6 0.00 0.01 0.00 83 1002.0
20260830133055 65 140 2.6 9.6 0.00 0.01 0.00 84 1002.1
20260830132530 65 107 4.3 9.6 0.00 0.01 0.00 83 1002.1
20260830132033 65 113 2.6 7.8 0.00 0.01 0.00 84 1002.0
20260830131554 64 110 3.5 8.7 0.00 0.01 0.00 85 1002.0
20260830131033 64 185 4.3 12.2 0.00 0.01 0.00 84 1001.9
20260830130532 64 86 2.6 12.2 0.00 0.01 0.00 84 1002.0
20260830125532 65 160 1.7 4.3 0.00 0.06 0.00 83 1001.9
20260830125033 65 156 0.9 4.3 0.00 0.06 0.00 83 1001.8
20260830124547 65 160 1.7 4.3 0.00 0.06 0.00 81 1001.7
20260830124031 65 134 1.7 5.2 0.00 0.06 0.00 80 1001.8
20260830123532 65 160 1.7 5.2 0.00 0.06 0.00 80 1001.7
20260830123123 66 43 1.7 4.3 0.00 0.06 0.00 79 1001.7
20260830122532 67 80 0.9 4.3 0.00 0.06 0.00 78 1001.7
20260830122034 68 166 1.7 5.2 0.00 0.06 0.00 77 1001.7
20260830121550 68 116 3.5 5.2 0.00 0.06 0.00 76 1001.7
20260830121033 67 124 2.6 4.3 0.00 0.06 0.00 80 1001.7
20260830120532 66 139 0.0 2.6 0.00 0.06 0.00 81 1001.8
20260830120059 65 115 0.9 4.3 0.00 0.06 0.00 80 1001.8
20260830115532 65 113 0.9 4.3 0.00 0.11 0.00 79 1001.8
20260830115033 66 115 0.9 5.2 0.00 0.11 0.00 79 1001.7
20260830114559 66 112 0.9 5.2 0.00 0.11 0.00 79 1001.9
20260830114032 66 161 2.6 6.1 0.00 0.11 0.00 79 1001.8
20260830113531 67 175 2.6 6.1 0.00 0.11 0.00 77 1001.7
20260830113052 68 191 2.6 7.8 0.00 0.11 0.00 75 1001.7
20260830112534 68 213 4.3 7.8 0.00 0.11 0.00 76 1001.7
20260830112032 68 288 2.6 6.1 0.00 0.11 0.00 80 1001.8
20260830111548 66 250 3.5 6.1 0.00 0.11 0.00 80 1001.7
20260830111033 66 187 3.5 6.1 0.00 0.11 0.00 81 1001.8
20260830110531 65 216 1.7 4.3 0.00 0.11 0.00 84 1001.7
20260830110049 65 141 0.9 4.3 0.00 0.11 0.00 83 1001.8
20260830105540 65 184 2.6 6.1 0.00 0.13 0.00 83 1001.8
20260830105031 65 108 2.6 6.1 0.00 0.13 0.00 82 1001.8
20260830104555 65 228 1.7 6.1 0.00 0.13 0.00 84 1001.9
20260830104032 65 257 3.5 6.1 0.00 0.13 0.00 84 1001.8
20260830103535 64 243 1.7 6.1 0.00 0.13 0.00 84 1001.9
20260830103050 64 245 3.5 6.1 0.00 0.13 0.00 84 1001.9
20260830102531 65 235 2.6 5.2 0.00 0.13 0.00 84 1001.8
20260830102031 64 181 2.6 5.2 0.00 0.13 0.00 86 1001.9
20260830101555 64 236 2.6 4.3 0.00 0.13 0.00 87 1001.9
20260830101033 63 217 0.9 3.5 0.00 0.13 0.00 87 1001.8
20260830100531 63 188 0.0 3.5 0.00 0.13 0.00 87 1001.8
20260830100047 63 174 0.9 3.5 0.00 0.13 0.00 88 1001.9
20260830095531 63 224 2.6 3.5 0.00 0.14 0.00 88 1001.9
20260830095032 63 244 0.9 5.2 0.00 0.14 0.00 89 1001.9
20260830094551 62 148 1.7 7.8 0.00 0.14 0.00 88 1001.9
20260830094031 62 210 2.6 7.8 0.00 0.14 0.00 88 1002.0
20260830093533 62 223 4.3 7.8 0.00 0.14 0.00 89 1001.9
20260830093112 62 174 2.6 6.1 0.00 0.14 0.00 89 1001.9
20260830092531 62 218 1.7 6.1 0.00 0.14 0.00 89 1002.0
20260830092031 62 144 2.6 6.1 0.00 0.14 0.00 89 1001.9
20260830091558 62 174 1.7 4.3 0.00 0.14 0.00 89 1001.9
20260830091033 62 205 2.6 4.3 0.00 0.14 0.00 90 1001.7
20260830090533 62 194 0.9 3.5 0.00 0.14 0.00 91 1001.7
20260830090051 62 0 1.7 3.5 0.00 0.14 0.00 91 1001.7
20260830085531 61 201 0.0 3.5 0.00 0.14 0.00 91 1001.8
20260830085032 61 240 1.7 3.5 0.00 0.14 0.00 91 1001.8
20260830084559 62 192 0.0 3.5 0.00 0.14 0.00 91 1001.8
20260830084032 62 157 1.7 3.5 0.00 0.14 0.00 91 1001.7
20260830083532 61 150 0.9 2.6 0.00 0.14 0.00 92 1001.8
20260830083057 61 120 1.7 3.5 0.00 0.14 0.00 92 1001.7
20260830082534 61 120 0.0 3.5 0.00 0.14 0.00 93 1001.7
20260830082032 61 206 0.9 2.6 0.00 0.14 0.00 93 1001.6
20260830081559 60 0 0.0 3.5 0.00 0.14 0.00 93 1001.8
20260830081032 60 105 0.0 3.5 0.00 0.14 0.00 93 1001.8
20260830080532 60 152 0.9 3.5 0.00 0.14 0.00 93 1001.8
20260830080049 60 132 0.9 2.6 0.00 0.14 0.00 93 1001.8
20260830075532 60 139 0.0 2.6 0.00 0.14 0.00 93 1001.8
20260830075031 60 153 0.0 2.6 0.00 0.14 0.00 93 1001.7
20260830074559 60 0 0.0 0.9 0.00 0.14 0.00 94 1001.7
20260830074031 60 0 0.0 1.7 0.00 0.14 0.00 93 1001.7
20260830073531 59 0 0.0 1.7 0.00 0.14 0.00 93 1001.7
20260830073056 59 0 0.0 1.7 0.00 0.14 0.00 93 1001.6
20260830072532 59 0 0.0 1.7 0.00 0.14 0.00 93 1001.6
20260830072032 59 0 0.0 3.5 0.00 0.14 0.00 93 1001.7
20260830071557 59 140 0.9 3.5 0.00 0.14 0.00 93 1001.7
20260830071032 59 201 1.7 3.5 0.00 0.14 0.00 94 1001.5
20260830070532 59 135 0.9 4.3 0.00 0.14 0.00 94 1001.5
20260830070048 59 98 0.9 4.3 0.00 0.14 0.00 94 1001.6
20260830065531 59 110 0.9 4.3 0.00 0.14 0.00 94 1001.5
20260830065031 59 0 0.0 2.6 0.00 0.14 0.00 95 1001.4
20260830064546 59 0 0.0 2.6 0.00 0.14 0.00 95 1001.5
20260830064031 59 0 0.0 0.0 0.00 0.14 0.00 95 1001.3
20260830063531 59 0 0.0 0.0 0.00 0.14 0.00 95 1001.3
20260830063054 58 0 0.0 0.0 0.00 0.14 0.00 95 1001.4
20260830062531 58 0 0.0 0.0 0.00 0.14 0.00 95 1001.3
20260830062032 58 0 0.0 0.0 0.00 0.14 0.00 95 1001.3
20260830061548 58 0 0.0 0.0 0.00 0.14 0.00 95 1001.3
20260830061032 58 0 0.0 0.0 0.00 0.14 0.00 95 1001.2